FW6124 Weather Reports


time (UTC)temp
F
wind
direction
speed
knots
gust
knots
rain 1hr
in
rain 24hr
in
rain mn
in
humidity
%
barometer
mb
20260506111545 49 0.0 0.0 0.00 0.00 0.00 93 1017.7
20260506110043 49 0.0 0.0 0.00 0.00 0.00 93 1017.5
20260506104536 50 0.0 0.0 0.00 0.00 0.00 93 1017.3
20260506103032 50 0.0 0.0 0.00 0.00 0.00 94 1017.0
20260506101532 50 0.0 0.0 0.00 0.00 0.00 94 1016.8
20260506100023 50 0.0 0.0 0.00 0.00 0.00 94 1016.7
20260506094519 49 0.0 0.0 0.00 0.00 0.00 94 1016.6
20260506093018 49 0.0 0.0 0.00 0.00 0.00 93 1016.5
20260506091510 49 0.0 0.0 0.00 0.00 0.00 93 1016.5
20260506090005 50 0.0 0.0 0.00 0.00 0.00 92 1016.5
20260506084501 50 0.0 0.0 0.00 0.00 0.00 92 1016.4
20260506083059 50 0.0 0.0 0.00 0.00 0.00 91 1016.4
20260506081605 51 0.0 0.0 0.00 0.00 0.00 91 1016.4
20260506073039 52 0.0 0.0 0.00 0.00 0.00 92 1016.1
20260506071534 52 0.0 0.0 0.00 0.00 0.00 92 1015.9
20260506061526 52 0.0 0.0 0.00 0.00 0.00 90 1015.6
20260506044531 55 0.0 0.0 0.00 0.00 0.00 88 1015.1
20260506043017 55 0.0 0.0 0.00 0.00 0.00 88 1014.9
20260506041513 56 0.0 0.0 0.00 0.00 0.00 86 1014.9
20260506040009 56 0.0 0.0 0.00 0.00 0.00 83 1014.7
20260506034506 57 0.0 0.0 0.00 0.00 0.00 83 1014.5
20260506033101 58 0.0 0.0 0.00 0.00 0.00 81 1014.4
20260506031601 58 0.0 0.0 0.00 0.00 0.00 79 1014.2
20260506030051 59 0.0 0.0 0.00 0.00 0.00 79 1014.3
20260506024554 59 114 0.0 2.6 0.00 0.00 0.00 77 1014.2
20260506023056 60 157 0.0 0.9 0.00 0.00 0.00 76 1014.3
20260506021548 61 137 0.0 5.2 0.00 0.00 0.00 76 1014.3
20260506020047 61 248 0.0 6.1 0.00 0.00 0.00 75 1014.3
20260506014547 62 102 0.0 5.2 0.00 0.00 0.00 74 1014.3
20260506013053 63 133 0.0 9.6 0.00 0.00 0.00 73 1014.2
20260506011545 64 82 1.7 7.0 0.00 0.00 0.00 71 1014.2
20260506010055 65 210 1.7 8.7 0.00 0.00 0.00 69 1014.1
20260506004544 67 86 0.0 2.6 0.00 0.00 0.00 67 1014.2
20260506003043 69 30 0.9 5.2 0.00 0.00 0.00 63 1014.2
20260506001545 69 348 0.0 6.1 0.00 0.00 0.00 66 1014.3
20260506000039 68 216 0.0 5.2 0.00 0.00 0.00 70 1014.3
20260505234536 68 57 0.9 3.5 0.00 0.00 0.00 69 1014.5
20260505233039 67 57 1.7 7.0 0.00 0.00 0.00 69 1014.7
20260505224554 67 62 0.0 2.6 0.00 0.00 0.00 70 1015.0
20260505223053 67 39 0.9 3.5 0.00 0.00 0.00 70 1015.1
20260505221555 67 50 4.3 7.8 0.00 0.00 0.00 70 1015.2
20260505220052 67 78 0.0 2.6 0.00 0.00 0.00 69 1015.4
20260505214559 67 78 0.0 2.6 0.00 0.00 0.00 70 1015.3
20260505213048 67 104 0.0 2.6 0.00 0.00 0.00 70 1015.4
20260505211547 66 86 0.0 2.6 0.00 0.00 0.00 71 1015.5
20260505210044 66 81 0.0 5.2 0.00 0.00 0.00 75 1015.5
20260505204540 65 57 0.0 5.2 0.00 0.00 0.00 73 1015.7
20260505203040 65 104 0.9 7.8 0.00 0.00 0.00 73 1015.7
20260505201549 65 41 3.5 7.0 0.00 0.00 0.00 72 1015.7
20260505200038 65 61 3.5 8.7 0.00 0.00 0.00 72 1015.7
20260505194536 65 53 0.9 7.8 0.00 0.00 0.00 74 1015.7
20260505193034 65 79 0.9 6.1 0.00 0.00 0.00 74 1015.7
20260505191533 64 79 1.7 7.0 0.00 0.00 0.00 74 1015.7
20260505190036 64 59 0.0 5.2 0.00 0.00 0.00 73 1015.6
20260505184529 64 94 0.0 7.8 0.00 0.00 0.00 77 1015.7
20260505183025 63 42 0.9 7.0 0.00 0.00 0.00 76 1015.7
20260505181522 63 80 0.0 7.0 0.00 0.00 0.00 78 1015.6
20260505180018 62 107 0.0 5.2 0.00 0.00 0.00 80 1015.6
20260505174515 61 46 2.6 7.8 0.00 0.00 0.00 80 1015.7
20260505173014 60 80 5.2 8.7 0.00 0.00 0.00 80 1015.7
20260505171514 60 99 0.9 2.6 0.00 0.00 0.00 81 1015.7
20260505170017 60 88 1.7 7.8 0.00 0.00 0.00 80 1015.6
20260505164508 60 69 0.9 7.0 0.00 0.00 0.00 80 1015.5
20260505163010 60 78 0.0 2.6 0.00 0.00 0.00 80 1015.6
20260505161504 59 41 0.9 3.5 0.00 0.00 0.00 84 1015.5
20260505153052 57 92 0.0 2.6 0.00 0.00 0.00 86 1015.3
20260505151548 56 51 0.0 0.9 0.00 0.00 0.00 87 1015.2
20260505124508 48 0.0 0.0 0.00 0.00 0.00 91 1013.7
20260505123005 48 0.0 0.0 0.00 0.00 0.00 90 1013.4
20260505121559 48 0.0 0.0 0.00 0.00 0.00 90 1013.2
20260505120110 48 0.0 0.0 0.00 0.00 0.00 89 1013.1
20260505114550 49 0.0 0.0 0.00 0.00 0.00 87 1012.9
20260505113047 49 0.0 0.0 0.00 0.00 0.00 87 1012.8